Torna al catalogo

DEMO8

TENZING

AttivoScienzaPO
NORAD 48951·PAYLOAD·🇺🇸 United States

Lanciato Jun 30, 2021 da Cape Canaveral Space Force Station

Loading…

Prossimi Passaggi (prossime 24 ore)

TLE

AggiornatoSource: Space-Track

Epoca: Sep 14, 2026, 12:45 UTC

1 48951U 21059CA  26257.53143510  .00018448  00000-0  24518-3 0  9996
2 48951  97.6964  97.9681 0006775  28.7295 331.4332 15.58238115291200

Traccia DEMO8 in tempo reale con AllMySat

Download on the App Store